ITY7494 LIPX-EDDM

Flight info

Callsign ITY7494
Flight time 0h 42m
Altitude 28000
Route OTZOM Y480 UPXUF L612 ADOSA DCT BORMI DCT SOTOV/N0388F240 T101 BETOS BETOS1B
Aircraft A320/M-SDE3FGHIRWY/LB1

Departure

Time 2026-05-07 16:32
Airport Verona Villafranca Valerio Catullo Airport (LIPX)

Arrival

Time 2026-05-07 17:14
Airport Munich Airport (EDDM)
Time Latitude Longitude Altitude Speed Heading
2026-05-07 16:04 45.40385 10.90724 243 ft 0 kts 135°
2026-05-07 16:25 45.40402 10.90700 242 ft 4 kts 126°
2026-05-07 16:26 45.40413 10.90667 242 ft 4 kts 95°
2026-05-07 16:26 45.40410 10.90640 242 ft 1 kts 46°
2026-05-07 16:26 45.40409 10.90640 242 ft 1 kts 46°
2026-05-07 16:29 45.40432 10.90654 242 ft 6 kts 359°
2026-05-07 16:29 45.40477 10.90615 242 ft 11 kts 319°
2026-05-07 16:29 45.40507 10.90578 242 ft 1 kts 328°
2026-05-07 16:29 45.40543 10.90597 242 ft 10 kts 41°
2026-05-07 16:30 45.40589 10.90646 242 ft 7 kts 17°
2026-05-07 16:30 45.40624 10.90633 243 ft 4 kts 320°
2026-05-07 16:30 45.40630 10.90622 244 ft 0 kts 299°
2026-05-07 16:30 45.40631 10.90569 245 ft 12 kts 257°
2026-05-07 16:31 45.40609 10.90423 247 ft 16 kts 259°
2026-05-07 16:31 45.40544 10.90270 246 ft 25 kts 225°
2026-05-07 16:31 45.40281 10.89886 247 ft 89 kts 225°
2026-05-07 16:31 45.39702 10.89041 240 ft 146 kts 225°
2026-05-07 16:32 45.38929 10.87918 650 ft 160 kts 225°
2026-05-07 16:32 45.38143 10.86781 1369 ft 162 kts 227°
2026-05-07 16:32 45.37331 10.85559 1834 ft 181 kts 229°
2026-05-07 16:32 45.36436 10.84168 2248 ft 199 kts 233°
2026-05-07 16:33 45.35815 10.82357 2677 ft 215 kts 251°
2026-05-07 16:33 45.35278 10.80231 3009 ft 242 kts 249°
2026-05-07 16:33 45.34633 10.77923 3646 ft 257 kts 246°
2026-05-07 16:33 45.33568 10.75880 4521 ft 264 kts 216°
2026-05-07 16:34 45.31836 10.75028 5416 ft 271 kts 182°
2026-05-07 16:34 45.30012 10.75724 6324 ft 279 kts 148°
2026-05-07 16:34 45.28727 10.77742 7140 ft 286 kts 115°
2026-05-07 16:34 45.28385 10.80518 7985 ft 291 kts 83°
2026-05-07 16:35 45.28925 10.83306 8836 ft 294 kts 69°
2026-05-07 16:35 45.29655 10.86047 9698 ft 298 kts 69°
2026-05-07 16:35 45.30398 10.88827 10460 ft 303 kts 68°
2026-05-07 16:35 45.31156 10.91657 11208 ft 308 kts 68°
2026-05-07 16:36 45.31833 10.94524 11957 ft 312 kts 75°
2026-05-07 16:36 45.32286 10.97560 12711 ft 317 kts 80°
2026-05-07 16:36 45.32610 11.00681 13466 ft 321 kts 82°
2026-05-07 16:36 45.32948 11.03834 14147 ft 325 kts 74°
2026-05-07 16:37 45.33910 11.06731 14768 ft 326 kts 50°
2026-05-07 16:37 45.35597 11.08825 15380 ft 324 kts 25°
2026-05-07 16:37 45.37769 11.09843 15548 ft 337 kts
2026-05-07 16:37 45.40140 11.09541 15715 ft 349 kts 343°
2026-05-07 16:38 45.42564 11.08860 16168 ft 361 kts 351°
2026-05-07 16:38 45.45069 11.08903 16795 ft 369 kts
2026-05-07 16:38 45.47595 11.09774 17442 ft 376 kts 17°
2026-05-07 16:38 45.50007 11.11296 18081 ft 381 kts 19°
2026-05-07 16:39 45.52572 11.12041 18644 ft 374 kts 354°
2026-05-07 16:39 45.55084 11.11248 19173 ft 369 kts 333°
2026-05-07 16:39 45.57284 11.09403 19743 ft 367 kts 321°
2026-05-07 16:39 45.59357 11.07322 20314 ft 370 kts 322°
2026-05-07 16:40 45.61615 11.05494 20888 ft 377 kts 333°
2026-05-07 16:40 45.64153 11.04396 21481 ft 385 kts 346°
2026-05-07 16:40 45.66849 11.04045 22059 ft 393 kts 357°
2026-05-07 16:40 45.69587 11.04483 22615 ft 401 kts
2026-05-07 16:41 45.72314 11.05440 23163 ft 405 kts 10°
2026-05-07 16:41 45.75060 11.06418 23668 ft 408 kts 10°
2026-05-07 16:41 45.77830 11.07405 24086 ft 411 kts
2026-05-07 16:41 45.80624 11.08404 24471 ft 414 kts
2026-05-07 16:42 45.83437 11.09411 24878 ft 418 kts
2026-05-07 16:42 45.86230 11.10410 25316 ft 419 kts
2026-05-07 16:42 45.89074 11.11431 25698 ft 422 kts
2026-05-07 16:42 45.91941 11.12459 26035 ft 425 kts
2026-05-07 16:43 45.94832 11.13499 26427 ft 428 kts
2026-05-07 16:43 45.97737 11.14542 26803 ft 431 kts
2026-05-07 16:43 46.00667 11.15594 27172 ft 435 kts
2026-05-07 16:43 46.03586 11.16488 27567 ft 433 kts
2026-05-07 16:44 46.06584 11.16809 27976 ft 431 kts 357°
2026-05-07 16:44 46.09588 11.16945 28359 ft 433 kts 357°
2026-05-07 16:44 46.12614 11.17081 28701 ft 435 kts 357°
2026-05-07 16:44 46.15652 11.17223 29024 ft 438 kts 357°
2026-05-07 16:45 46.18666 11.17367 29337 ft 440 kts 357°
2026-05-07 16:45 46.21735 11.17515 29657 ft 442 kts 357°
2026-05-07 16:45 46.24822 11.17667 29947 ft 443 kts 356°
2026-05-07 16:45 46.27881 11.17825 30049 ft 434 kts 356°
2026-05-07 16:46 46.29903 11.17933 30057 ft 429 kts 356°
2026-05-07 16:46 46.35780 11.18229 30056 ft 424 kts 356°
2026-05-07 16:47 46.41668 11.18497 30021 ft 423 kts 356°
2026-05-07 16:47 46.47551 11.18777 30019 ft 423 kts 357°
2026-05-07 16:48 46.53433 11.19073 30016 ft 421 kts 357°
2026-05-07 16:48 46.59278 11.19352 30016 ft 421 kts 357°
2026-05-07 16:49 46.65139 11.19624 30026 ft 422 kts 358°
2026-05-07 16:49 46.71008 11.19914 30026 ft 422 kts 358°
2026-05-07 16:50 46.76864 11.20202 30004 ft 420 kts 358°
2026-05-07 16:50 46.82714 11.20487 30003 ft 421 kts 358°
2026-05-07 16:51 46.88579 11.20764 30021 ft 422 kts 359°
2026-05-07 16:51 46.94396 11.21046 30011 ft 421 kts 359°
2026-05-07 16:52 47.00255 11.21400 30003 ft 421 kts 360°
2026-05-07 16:52 47.06115 11.21814 30029 ft 421 kts
2026-05-07 16:53 47.11966 11.22229 30013 ft 421 kts
2026-05-07 16:53 47.17876 11.22632 29150 ft 432 kts
2026-05-07 16:53 47.20868 11.22828 28601 ft 427 kts
2026-05-07 16:54 47.23813 11.23024 28048 ft 421 kts
2026-05-07 16:54 47.26720 11.23223 27526 ft 416 kts
2026-05-07 16:54 47.29598 11.23424 26994 ft 411 kts
2026-05-07 16:54 47.32435 11.23624 26499 ft 406 kts
2026-05-07 16:55 47.35250 11.23819 26003 ft 402 kts
2026-05-07 16:55 47.38024 11.24008 25538 ft 398 kts
2026-05-07 16:55 47.40737 11.24191 25080 ft 394 kts
2026-05-07 16:55 47.43468 11.24375 24617 ft 390 kts
2026-05-07 16:56 47.46167 11.24556 24171 ft 386 kts
2026-05-07 16:56 47.48839 11.24733 23709 ft 384 kts
2026-05-07 16:56 47.54129 11.25098 22740 ft 376 kts
2026-05-07 16:57 47.56725 11.25229 22290 ft 371 kts 358°
2026-05-07 16:57 47.59294 11.25252 21852 ft 367 kts 357°
2026-05-07 16:57 47.61845 11.25214 21395 ft 363 kts 356°
2026-05-07 16:57 47.64367 11.25158 20944 ft 361 kts 356°
2026-05-07 16:58 47.66878 11.25109 20482 ft 359 kts 356°
2026-05-07 16:58 47.69337 11.25072 20023 ft 357 kts 357°
2026-05-07 16:58 47.71817 11.25066 19566 ft 356 kts
2026-05-07 16:58 47.74268 11.25569 19118 ft 357 kts 11°
2026-05-07 16:59 47.76629 11.26733 18655 ft 358 kts 18°
2026-05-07 16:59 47.78955 11.28039 18177 ft 357 kts 18°
2026-05-07 16:59 47.81279 11.29334 17701 ft 355 kts 18°
2026-05-07 16:59 47.83583 11.30616 17245 ft 353 kts 18°
2026-05-07 17:00 47.85883 11.31896 16798 ft 351 kts 18°
2026-05-07 17:00 47.88182 11.33065 16381 ft 346 kts 11°
2026-05-07 17:00 47.90549 11.33616 15940 ft 341 kts
2026-05-07 17:00 47.92892 11.33806 15526 ft 340 kts 360°
2026-05-07 17:01 47.95260 11.34002 15075 ft 340 kts 360°
2026-05-07 17:01 47.97622 11.34203 14645 ft 339 kts 360°
2026-05-07 17:01 47.99979 11.34405 14209 ft 339 kts 360°
2026-05-07 17:01 48.02306 11.34653 13773 ft 340 kts
2026-05-07 17:02 48.04580 11.35676 13287 ft 344 kts 23°
2026-05-07 17:02 48.06559 11.37693 12846 ft 346 kts 42°
2026-05-07 17:02 48.08036 11.40509 12462 ft 344 kts 60°
2026-05-07 17:02 48.08954 11.43803 12078 ft 342 kts 70°
2026-05-07 17:03 48.09761 11.47159 11675 ft 340 kts 70°
2026-05-07 17:03 48.10559 11.50476 11287 ft 338 kts 70°
2026-05-07 17:03 48.11345 11.53738 10902 ft 336 kts 69°
2026-05-07 17:03 48.12144 11.57044 10515 ft 332 kts 69°
2026-05-07 17:04 48.12925 11.60276 10259 ft 325 kts 69°
2026-05-07 17:04 48.13668 11.63363 10148 ft 313 kts 70°
2026-05-07 17:04 48.14391 11.66382 10029 ft 303 kts 70°
2026-05-07 17:04 48.15101 11.69346 9620 ft 303 kts 70°
2026-05-07 17:05 48.15809 11.72312 9232 ft 301 kts 70°
2026-05-07 17:05 48.16511 11.75255 8869 ft 299 kts 70°
2026-05-07 17:05 48.17208 11.78175 8510 ft 296 kts 69°
2026-05-07 17:05 48.18041 11.80975 8151 ft 292 kts 59°
2026-05-07 17:06 48.18911 11.83705 7796 ft 290 kts 71°
2026-05-07 17:06 48.19471 11.86601 7444 ft 288 kts 74°
2026-05-07 17:06 48.19970 11.89455 7094 ft 285 kts 74°
2026-05-07 17:06 48.20464 11.92323 6751 ft 282 kts 74°
2026-05-07 17:07 48.20946 11.95160 6407 ft 279 kts 75°
2026-05-07 17:07 48.21423 11.97965 6040 ft 276 kts 74°
2026-05-07 17:07 48.21890 12.00727 5773 ft 270 kts 72°
2026-05-07 17:07 48.22723 12.03158 5517 ft 258 kts 49°
2026-05-07 17:08 48.23960 12.05027 5280 ft 247 kts 30°
2026-05-07 17:08 48.24950 12.05797 5182 ft 236 kts 15°
2026-05-07 17:08 48.27010 12.06287 5039 ft 218 kts
2026-05-07 17:08 48.28477 12.06493 5018 ft 205 kts
2026-05-07 17:09 48.29878 12.06685 5023 ft 200 kts
2026-05-07 17:09 48.31264 12.06870 5026 ft 200 kts
2026-05-07 17:09 48.32652 12.06894 4866 ft 200 kts 348°
2026-05-07 17:09 48.33931 12.06260 4709 ft 194 kts 329°
2026-05-07 17:10 48.34990 12.05019 4609 ft 193 kts 310°
2026-05-07 17:10 48.35710 12.03331 4454 ft 192 kts 291°
2026-05-07 17:10 48.36006 12.01392 4287 ft 188 kts 273°
2026-05-07 17:10 48.35913 11.99443 4032 ft 185 kts 265°
2026-05-07 17:11 48.35772 11.97584 3786 ft 176 kts 265°
2026-05-07 17:11 48.35638 11.95817 3556 ft 164 kts 266°
2026-05-07 17:11 48.35516 11.94189 3369 ft 149 kts 265°
2026-05-07 17:11 48.35402 11.92686 3169 ft 141 kts 266°
2026-05-07 17:12 48.35291 11.91250 2977 ft 138 kts 266°
2026-05-07 17:12 48.35189 11.89822 2769 ft 138 kts 265°
2026-05-07 17:12 48.35082 11.88396 2556 ft 137 kts 266°
2026-05-07 17:12 48.34972 11.86958 2344 ft 139 kts 267°
2026-05-07 17:13 48.34868 11.85507 2155 ft 140 kts 266°
2026-05-07 17:13 48.34759 11.84036 1968 ft 142 kts 266°
2026-05-07 17:13 48.34640 11.82551 1829 ft 144 kts 264°
2026-05-07 17:13 48.34527 11.81059 1617 ft 143 kts 265°
2026-05-07 17:14 48.34405 11.79606 1462 ft 134 kts 271°
2026-05-07 17:14 48.34326 11.78425 1470 ft 91 kts 263°
2026-05-07 17:14 48.34270 11.77712 1469 ft 57 kts 264°
2026-05-07 17:14 48.34269 11.77244 1462 ft 36 kts 297°
2026-05-07 17:15 48.34345 11.76970 1465 ft 19 kts 293°
2026-05-07 17:15 48.34390 11.76811 1466 ft 8 kts 293°
2026-05-07 17:15 48.34409 11.76745 1462 ft 6 kts 297°
2026-05-07 17:15 48.34435 11.76709 1459 ft 4 kts 333°
2026-05-07 17:16 48.34460 11.76699 1466 ft 3 kts 346°
2026-05-07 17:16 48.34492 11.76691 1463 ft 5 kts 355°
2026-05-07 17:16 48.34559 11.76713 1463 ft 15 kts 44°
2026-05-07 17:16 48.34583 11.76876 1460 ft 17 kts 84°
2026-05-07 17:17 48.34597 11.77063 1463 ft 19 kts 83°
2026-05-07 17:17 48.34615 11.77270 1466 ft 21 kts 82°
2026-05-07 17:17 48.34632 11.77495 1466 ft 22 kts 83°
2026-05-07 17:17 48.34651 11.77733 1461 ft 24 kts 83°
2026-05-07 17:18 48.34669 11.77989 1463 ft 25 kts 83°
2026-05-07 17:18 48.34690 11.78257 1465 ft 26 kts 84°
2026-05-07 17:18 48.34711 11.78537 1458 ft 27 kts 83°
2026-05-07 17:18 48.34733 11.78820 1467 ft 24 kts 83°
2026-05-07 17:19 48.34750 11.79050 1467 ft 23 kts 83°
2026-05-07 17:19 48.34771 11.79294 1465 ft 23 kts 83°
2026-05-07 17:19 48.34781 11.79483 1466 ft 19 kts 84°
2026-05-07 17:19 48.34852 11.79560 1467 ft 1 kts 355°
2026-05-07 17:20 48.34854 11.79560 1467 ft 1 kts 355°
2026-05-07 17:20 48.34883 11.79555 1459 ft 9 kts 353°
2026-05-07 17:20 48.34974 11.79539 1467 ft 15 kts 353°
2026-05-07 17:20 48.35078 11.79524 1467 ft 15 kts
2026-05-07 17:21 48.35178 11.79571 1467 ft 16 kts 353°
2026-05-07 17:21 48.35292 11.79550 1464 ft 18 kts 353°
2026-05-07 17:21 48.35420 11.79532 1467 ft 19 kts 356°
2026-05-07 17:21 48.35558 11.79505 1467 ft 21 kts 355°
2026-05-07 17:22 48.35706 11.79481 1467 ft 22 kts 353°
2026-05-07 17:22 48.35814 11.79429 1465 ft 13 kts 308°
2026-05-07 17:22 48.35843 11.79308 1465 ft 11 kts 268°
2026-05-07 17:22 48.35842 11.79288 1467 ft 1 kts 266°
2026-05-07 17:23 48.35841 11.79263 1467 ft 4 kts 263°
2026-05-07 17:23 48.35838 11.79231 1464 ft 3 kts 264°
2026-05-07 17:23 48.35838 11.79226 1467 ft 0 kts 264°